GEFSMW_con_probscp_312.txt.gz
Probability
0 0 0 1 0 0 0 0 0 0 0 0 0 0 0 0 0 0 1 1 1 1 2 3 2 1 1 0 0 0 0 0 0 0 0 0 0 0 0 0 0 0 0
0 1 1 1 1 1 0 0 0 0 0 0 0 1 1 0 1 1 2 2 2 2 3 3 2 1 1 0 0 0 0 0 0 0 0 0 0 0 0 0 0 0 0
1 2 2 1 2 2 1 1 1 1 0 0 1 2 2 2 2 3 3 3 3 3 3 3 2 1 0 0 0 0 0 0 0 1 1 1 1 1 1 0 0 0 0
1 2 2 1 1 2 2 2 2 2 2 2 3 3 3 3 3 3 3 3 3 3 3 3 3 1 0 0 0 0 0 0 1 2 2 2 2 2 2 1 0 0 0
0 1 1 0 1 2 2 3 4 4 5 5 5 5 4 3 3 3 3 3 3 3 3 3 3 2 0 0 0 0 0 1 2 3 3 3 3 3 3 1 0 0 0
0 0 0 0 1 1 1 3 4 5 6 6 6 6 5 4 4 4 4 3 3 3 3 2 2 1 0 0 0 0 0 1 2 3 3 3 3 3 3 2 1 0 0
0 0 0 0 0 0 0 2 5 6 6 6 6 6 6 6 6 6 5 5 5 5 2 1 1 1 2 2 1 0 0 0 1 2 3 3 3 3 3 3 2 1 1
1 1 0 0 0 0 0 2 4 6 6 7 7 8 8 8 7 6 6 6 7 6 3 1 2 3 3 2 1 0 0 1 2 2 3 3 3 3 3 3 3 3 2
2 2 1 0 0 1 1 1 3 5 6 7 8 9 9 9 8 6 6 7 7 6 5 4 4 4 3 2 1 1 1 2 3 3 3 3 3 3 3 4 4 3 3
3 3 2 1 1 3 3 2 2 4 6 8 8 8 9 9 7 6 6 7 7 6 6 7 7 6 4 3 3 3 3 3 3 3 3 3 3 4 4 5 5 4 4
2 2 1 1 3 5 5 3 2 3 6 7 6 6 7 7 6 6 8 8 8 7 7 8 9 8 7 6 6 6 5 4 4 4 3 3 4 5 6 6 6 5 4
1 1 0 1 3 4 3 1 1 2 5 6 5 4 4 4 4 6 8 8 9 9 9 10 11 10 9 8 7 7 6 6 6 5 4 3 4 5 6 5 4 3 3
0 0 0 1 2 2 1 0 0 0 2 4 4 4 3 3 3 5 7 8 9 10 10 11 12 11 9 7 6 5 5 6 6 5 4 3 3 4 4 3 2 2 2
0 0 0 1 1 0 0 0 1 1 1 2 4 5 5 4 4 5 6 8 10 10 10 10 11 10 8 6 5 4 4 4 4 4 3 3 3 3 3 2 2 3 3
0 0 1 1 1 1 1 1 2 2 2 2 4 5 6 6 7 7 7 9 10 10 9 9 9 8 7 5 4 4 5 5 4 4 4 3 3 3 2 1 1 2 2
1 1 1 2 2 2 2 3 3 4 3 3 3 4 5 7 9 9 9 9 9 8 7 7 7 7 7 5 3 3 5 6 6 5 5 4 4 3 2 0 0 1 1
3 2 2 2 2 3 3 3 4 5 5 4 3 4 4 6 8 8 8 8 8 6 6 6 6 6 6 4 3 2 4 6 7 7 6 6 5 3 2 1 0 0 0
6 4 3 3 2 3 4 4 4 5 6 5 4 4 4 5 7 8 8 8 8 6 5 5 5 6 5 3 2 2 2 4 7 6 5 5 4 2 1 1 0 0 1
5 4 3 3 3 4 5 5 5 6 6 6 6 7 7 9 10 11 10 10 10 8 7 7 6 5 4 2 1 1 3 4 5 5 4 4 3 1 1 1 1 1 2
2 2 1 1 2 4 4 5 6 7 7 8 9 10 11 13 15 16 15 14 12 11 11 10 8 6 4 3 1 2 4 6 5 5 4 3 2 0 0 2 3 3 3
1 1 1 1 1 2 3 4 5 5 5 7 10 11 12 15 17 19 19 17 14 13 13 12 10 8 7 6 3 2 4 6 6 6 5 5 3 1 0 1 2 3 2
1 1 1 1 2 2 2 2 3 4 4 6 8 9 11 13 16 19 20 18 15 13 13 12 11 10 9 7 5 2 2 4 5 5 5 5 3 1 0 0 0 1 1
1 1 2 2 3 3 2 1 2 4 5 6 6 8 10 13 15 16 17 17 16 14 13 12 10 9 9 8 6 3 1 1 2 3 4 3 1 0 0 0 0 0 0
2 2 3 3 3 3 2 1 2 3 4 5 7 8 11 12 13 12 13 15 15 14 13 12 10 9 8 7 6 5 3 2 1 2 2 2 1 1 1 2 1 1 1
2 2 2 2 2 1 1 2 3 4 4 5 7 8 9 10 10 11 11 12 12 12 11 10 11 10 9 6 4 4 3 2 2 2 3 3 2 2 3 3 3 2 2
1 1 1 1 1 1 2 3 4 5 5 6 6 7 6 7 9 11 10 9 9 8 7 8 10 10 8 5 2 2 1 1 2 3 3 3 3 3 3 3 3 3 3

GEFSMW_con_probscp_318.txt.gz
Probability
3 3 3 3 2 2 4 5 6 8 9 8 7 6 5 4 6 8 9 6 4 3 4 5 5 4 4 4 4 4 3 3 4 4 5 6 6 5 4 3 3 3 2
3 3 3 2 2 3 5 7 8 9 9 9 8 7 5 4 5 8 9 7 4 3 4 5 4 4 4 3 4 5 3 2 4 5 5 5 6 6 5 4 4 4 3
2 2 2 2 2 3 4 6 7 9 10 10 9 8 7 6 6 7 9 7 5 3 4 4 4 3 3 4 4 4 3 2 3 5 6 6 7 7 6 4 4 4 4
1 1 2 3 3 2 3 3 4 7 9 10 11 11 10 9 8 8 8 8 6 4 3 3 3 3 4 5 5 4 3 1 2 4 6 7 7 7 6 5 4 4 4
2 2 4 4 3 2 2 1 2 5 9 12 14 15 13 12 10 9 9 9 8 6 5 4 4 4 5 6 7 6 4 3 3 4 6 7 7 7 7 6 5 3 3
4 4 4 3 2 1 1 1 2 5 9 12 15 15 14 12 11 10 10 9 9 8 6 7 9 9 8 9 11 10 8 6 6 7 7 7 7 7 7 6 4 3 2
6 5 3 3 2 2 2 4 5 7 9 11 12 11 10 10 11 11 10 9 8 7 7 10 14 15 14 13 14 13 11 9 9 9 8 7 7 7 7 6 5 4 3
7 5 3 4 6 6 6 7 9 9 9 10 9 8 8 9 11 11 11 10 8 7 8 12 17 17 15 15 15 14 12 12 11 9 8 7 6 6 7 7 7 5 4
7 6 6 7 8 9 8 9 10 10 10 11 11 10 10 11 12 13 13 12 11 10 10 14 17 16 15 16 16 14 14 15 14 11 10 8 7 7 7 8 8 7 5
8 7 6 7 8 9 9 9 10 10 9 10 11 10 11 12 12 13 15 15 14 13 13 15 17 16 15 18 19 18 18 19 17 15 14 12 10 9 8 8 8 7 7
9 7 6 6 8 8 8 8 7 7 6 7 8 8 8 9 9 11 14 16 16 16 16 17 18 17 15 18 21 21 21 22 21 19 18 16 15 14 12 10 8 8 8
9 7 7 7 7 8 8 6 3 3 3 5 6 6 6 7 8 11 14 16 17 17 18 19 19 17 15 16 17 18 19 20 20 21 22 20 20 20 18 14 11 10 10
11 10 10 9 7 8 8 5 2 1 3 4 4 4 5 7 10 13 15 17 17 18 18 19 18 16 15 15 15 15 15 16 17 21 23 22 22 23 23 20 15 12 12
14 14 13 12 10 8 8 5 3 3 3 3 2 2 4 8 11 13 15 16 16 15 16 17 17 16 16 15 15 14 13 13 14 17 20 20 19 20 22 22 20 17 15
16 16 15 13 12 10 8 5 5 6 6 4 2 3 5 8 11 14 15 15 14 13 14 16 18 17 16 14 13 13 12 12 12 14 17 18 16 15 16 16 17 17 17
14 15 15 14 13 12 10 9 10 12 12 8 6 5 6 9 12 14 14 14 14 15 15 16 18 17 14 11 10 10 11 11 11 12 15 17 15 14 12 10 9 10 12
10 12 16 16 14 12 12 13 15 17 17 14 11 9 10 12 13 12 11 12 15 17 17 16 16 16 13 8 6 6 8 11 11 12 14 15 15 16 15 12 7 6 7
12 13 16 16 14 12 13 14 15 16 17 16 14 14 14 14 13 12 10 10 12 15 17 16 15 15 13 7 3 3 6 9 10 11 12 14 15 16 17 17 15 13 12
17 17 17 15 12 12 13 14 14 15 15 15 14 14 14 14 14 14 13 11 11 12 14 15 16 17 13 7 2 2 5 7 9 11 11 11 12 11 12 17 22 21 19
21 20 17 13 12 13 15 16 15 14 14 13 13 12 12 13 14 15 16 16 14 12 13 16 17 16 14 8 2 2 6 8 10 12 11 9 7 5 6 13 21 22 20
21 18 15 13 12 14 16 17 16 14 13 13 14 14 13 13 14 16 19 20 18 16 17 18 18 16 14 8 3 2 6 10 12 13 12 10 6 2 2 7 13 15 15
14 13 13 12 12 13 16 18 17 16 15 16 16 16 15 13 14 18 22 22 20 20 20 20 19 18 15 10 5 2 3 7 11 13 12 10 6 2 1 3 5 6 7
8 10 11 11 11 11 13 15 17 17 16 16 17 17 16 15 15 18 21 20 20 20 20 19 18 18 16 13 8 4 2 3 7 10 9 6 3 2 2 2 2 3 4
8 9 10 11 11 11 11 13 15 17 16 16 17 17 16 16 17 17 18 19 19 20 20 18 18 19 18 15 13 10 6 4 5 7 7 5 4 5 6 5 4 5 6
9 9 10 10 12 13 12 11 14 16 16 16 16 15 14 15 17 17 17 18 19 19 18 17 17 18 17 14 12 10 8 5 5 6 8 9 10 11 12 11 9 9 9
10 10 10 11 13 15 13 11 12 15 16 15 14 12 12 14 17 18 17 17 16 15 14 12 13 16 16 11 7 6 5 4 3 5 9 13 14 15 16 14 13 12 12

GEFSMW_con_probscp_324.txt.gz
Probability
10 7 4 6 10 13 17 18 16 14 15 17 18 18 20 23 24 26 29 27 18 14 15 14 13 14 14 12 12 14 13 12 11 9 9 10 11 11 9 7 8 9 11
14 10 5 4 7 11 14 18 19 17 15 17 19 18 20 24 25 26 28 26 19 15 14 14 12 11 12 12 13 14 13 11 9 7 7 10 11 10 7 6 8 10 10
17 13 7 5 7 9 12 17 22 21 18 16 15 14 17 23 25 24 24 22 18 15 15 15 12 10 10 12 12 13 13 12 9 7 7 9 11 9 6 5 6 9 10
13 13 11 9 10 11 14 19 25 26 23 17 13 11 14 18 21 20 19 18 16 15 17 17 15 13 12 12 11 12 13 13 11 9 8 8 9 9 7 4 4 8 10
12 13 13 11 10 12 14 20 28 30 27 21 16 14 12 12 13 13 14 16 16 16 18 18 17 16 16 15 14 13 13 13 11 9 7 7 9 9 7 5 6 8 10
13 14 15 14 12 13 15 21 29 32 28 22 19 17 14 11 11 13 15 18 18 19 19 19 18 19 20 21 20 19 16 13 12 10 8 9 10 8 7 7 8 10 12
15 16 19 19 18 17 18 22 29 31 27 23 20 19 19 16 16 19 20 20 21 21 21 21 21 21 21 23 24 24 22 17 15 13 13 13 11 9 8 8 9 11 13
17 17 19 22 21 20 20 24 29 30 26 23 21 21 22 19 18 21 22 22 22 21 22 24 23 21 20 22 24 25 24 21 17 15 16 15 12 9 8 9 10 10 10
16 16 17 20 21 21 21 25 31 31 26 23 21 22 21 18 16 20 23 23 22 20 21 23 22 19 18 20 23 24 24 23 20 18 17 16 13 10 10 13 15 11 7
13 13 15 18 21 22 24 27 32 33 29 25 23 21 21 18 17 20 23 24 22 21 20 20 20 18 17 19 22 23 24 24 22 20 19 18 16 14 14 17 20 17 12
11 12 15 19 22 24 26 29 32 33 30 26 22 20 20 19 19 20 21 23 24 23 22 20 19 17 18 20 21 22 22 22 20 18 17 17 17 16 15 18 22 21 19
12 14 17 21 24 26 26 29 30 28 25 23 21 20 19 19 19 19 19 20 23 24 23 22 20 18 17 19 20 21 20 18 16 15 15 15 15 15 15 16 19 19 18
15 16 18 21 25 26 26 26 25 20 18 19 20 21 20 18 18 17 18 19 21 22 23 23 21 17 16 17 18 19 18 18 17 15 15 14 13 15 15 15 15 16 14
19 19 20 22 26 28 27 26 22 16 15 17 19 20 21 20 19 17 18 19 20 21 22 22 20 18 16 14 14 15 14 14 16 16 16 14 13 14 15 14 14 14 12
21 21 24 27 29 30 32 30 24 17 16 17 18 20 22 22 20 20 19 19 20 22 23 23 22 19 16 13 11 11 9 9 12 14 14 12 11 11 12 12 13 13 12
20 23 30 35 34 34 36 34 28 23 21 21 21 23 24 22 21 21 21 21 23 25 25 25 23 20 16 12 9 8 8 8 9 10 9 8 7 8 10 10 10 10 9
20 23 32 38 38 36 37 36 31 27 26 27 26 26 25 24 23 23 24 25 26 27 27 26 24 20 15 10 7 6 7 8 8 9 8 6 5 7 9 9 8 7 6
23 23 28 34 35 33 34 34 31 27 27 29 29 27 25 25 25 26 27 28 29 28 27 27 25 21 14 8 5 6 7 8 8 10 11 10 8 8 9 10 9 8 8
25 23 23 27 30 30 30 29 26 24 25 27 28 27 25 26 27 28 29 30 31 29 27 26 27 25 18 8 4 6 9 10 11 12 13 13 11 8 8 10 13 13 14
25 23 20 23 28 30 30 26 22 20 22 25 27 28 29 30 30 30 31 31 32 30 27 26 28 29 24 12 4 5 10 14 13 13 13 11 9 7 6 9 13 16 16
24 23 22 25 29 31 30 26 21 20 22 25 27 30 32 30 29 31 34 35 34 31 30 28 30 32 28 16 6 4 9 14 14 13 13 11 7 3 3 6 10 12 12
23 24 25 28 30 30 29 27 24 21 23 27 31 32 33 29 26 30 35 36 34 30 28 28 30 32 30 21 10 5 6 10 12 13 14 10 4 1 1 3 5 6 5
24 24 23 26 29 30 30 30 27 25 26 31 34 35 35 31 27 28 32 32 30 26 25 25 28 31 30 24 15 7 4 5 7 10 9 5 2 0 1 2 2 3 4
24 22 20 22 27 30 31 31 31 30 30 33 35 34 34 31 28 28 29 27 25 24 24 25 27 28 27 23 18 13 9 7 7 8 8 6 4 4 4 6 7 8 8
20 20 20 22 25 26 26 27 30 33 34 33 31 28 27 26 25 25 25 23 21 19 21 23 24 24 21 17 15 15 13 11 10 11 12 12 12 11 10 12 15 16 14
17 18 21 23 24 23 21 23 27 32 34 31 26 23 22 22 20 20 22 20 16 14 15 19 21 21 18 13 11 11 11 11 11 12 15 17 17 17 15 16 19 20 19

GEFSMW_con_probscp_330.txt.gz
Probability
8 7 8 8 6 4 4 5 5 4 4 4 3 2 2 2 3 3 2 4 5 6 7 9 7 4 2 2 1 0 0 0 0 0 0 0 0 0 0 0 0 0 0
9 8 8 9 6 4 6 7 6 5 4 3 3 2 1 1 2 2 2 4 5 6 7 8 7 4 1 1 0 0 0 0 0 0 0 0 0 0 0 0 0 0 0
9 8 8 8 7 7 8 8 7 4 2 1 2 1 1 2 3 4 3 5 7 7 7 7 6 4 2 1 1 0 0 0 0 0 0 0 0 0 0 0 0 0 0
9 8 8 8 8 8 9 8 7 5 3 2 2 2 2 3 4 4 4 5 6 6 6 6 5 4 3 2 2 1 0 0 0 0 0 0 0 0 0 0 0 0 0
12 11 11 10 9 9 10 9 8 6 6 5 5 4 3 3 3 3 3 3 2 3 4 4 4 4 3 3 2 1 0 0 0 0 0 0 0 0 0 0 0 0 0
16 16 15 13 11 12 13 12 10 8 8 8 7 5 4 4 3 3 3 1 0 1 2 3 3 3 3 3 2 1 1 1 1 0 0 1 1 1 0 0 0 0 0
18 18 16 14 13 15 16 16 13 10 10 9 8 6 5 4 4 3 3 2 2 2 2 2 3 3 3 3 2 1 2 3 2 1 1 1 2 2 1 1 0 0 0
15 15 15 14 15 18 19 18 16 13 11 11 9 8 6 4 3 2 2 2 3 2 1 1 2 3 3 3 2 1 1 2 3 3 2 2 2 2 2 2 1 0 0
11 12 15 16 19 21 21 19 18 16 14 13 11 8 5 2 1 1 1 1 1 1 0 1 2 4 4 3 3 1 0 1 2 3 3 3 2 2 3 3 2 1 0
9 11 15 18 21 23 22 19 17 16 15 14 11 6 3 1 0 0 0 0 0 0 0 1 4 5 5 4 4 3 1 0 1 1 2 2 2 3 3 2 3 2 1
10 11 14 18 21 21 20 17 14 14 13 12 9 4 1 0 0 0 0 0 0 1 1 3 5 6 6 6 6 4 2 0 0 0 1 1 1 2 2 3 3 3 3
12 12 13 15 16 18 17 15 13 12 11 10 7 3 1 0 0 0 0 1 1 3 4 5 6 7 7 7 7 6 4 2 1 0 0 0 0 1 1 2 3 3 3
13 13 13 13 13 15 15 14 13 11 11 10 8 5 2 2 1 1 1 2 3 5 6 6 6 7 8 8 8 7 6 5 3 1 0 0 0 0 0 1 2 3 3
12 13 13 12 12 15 17 16 14 11 11 10 10 8 6 4 3 2 3 4 5 6 8 7 7 7 7 7 7 7 7 6 5 3 1 0 0 0 0 0 1 2 3
11 12 12 12 13 15 17 17 15 13 13 12 12 11 9 7 5 4 3 4 6 8 10 11 10 8 7 7 6 6 6 6 6 5 3 1 0 0 0 0 0 1 2
11 12 12 12 12 12 14 15 15 14 14 14 14 13 12 9 7 6 6 6 9 11 13 14 13 10 8 7 6 6 6 6 6 6 5 3 1 0 0 0 0 1 2
11 11 11 10 11 10 10 13 14 14 15 15 16 16 14 11 10 10 11 11 12 15 17 16 15 13 10 7 6 6 6 6 6 6 6 5 3 1 0 0 0 0 1
11 10 10 9 10 9 10 12 14 14 14 15 17 18 16 14 13 13 13 13 14 17 19 19 17 15 11 8 6 5 6 6 6 6 6 4 3 2 0 0 0 0 0
10 10 10 10 9 9 10 11 12 12 11 12 15 17 17 16 16 14 13 13 15 18 19 19 18 16 13 9 5 4 4 6 6 6 6 4 3 2 0 0 0 0 1
8 9 10 10 9 8 9 10 10 9 8 9 11 13 14 16 17 15 12 13 16 18 18 18 18 17 14 10 5 3 5 6 6 6 6 4 3 2 0 0 1 1 2
9 9 11 11 10 8 8 8 8 7 6 6 7 9 11 14 16 15 13 14 15 16 16 18 18 17 15 11 6 4 5 6 7 7 7 5 3 1 0 0 2 2 2
10 10 11 12 10 8 6 5 5 4 4 5 6 7 8 10 13 14 15 15 14 14 15 17 18 18 15 12 8 3 3 5 7 8 7 5 2 0 0 0 1 1 1
9 9 10 12 11 9 7 5 4 4 3 3 4 6 7 9 11 14 16 17 16 16 16 16 16 17 16 14 9 4 3 3 5 7 5 2 1 0 0 0 0 0 1
8 9 9 11 11 9 8 7 5 4 3 2 3 5 6 9 11 13 15 17 17 18 18 17 15 15 16 14 10 7 5 3 3 3 2 0 0 0 1 1 1 1 2
8 9 9 9 8 7 7 6 5 4 3 3 3 4 6 8 10 11 12 13 14 14 15 15 14 13 13 11 9 8 7 4 2 1 1 1 1 1 2 3 3 2 2
7 8 9 8 6 5 5 5 4 3 4 4 4 4 6 7 8 9 10 10 9 9 11 12 12 12 11 9 8 7 6 3 1 1 2 2 2 2 3 4 4 2 1

GEFSMW_con_probscp_336.txt.gz
Probability
0 1 2 3 3 2 1 2 3 2 1 0 0 0 1 2 2 1 1 1 1 1 1 0 0 0 0 0 0 0 0 0 0 0 0 0 0 0 0 0 0 0 0
2 3 4 4 3 3 2 3 3 2 1 0 1 1 1 2 3 2 2 2 2 2 1 0 0 0 0 0 0 0 0 0 0 0 0 0 0 0 0 0 0 0 0
4 5 6 5 3 3 3 3 2 1 0 1 2 2 3 3 3 2 1 1 1 1 1 0 0 1 1 1 0 0 0 0 0 0 0 0 0 0 0 0 0 0 0
6 6 6 4 3 3 3 3 1 0 1 2 3 3 3 3 3 1 0 0 0 0 0 0 1 2 2 2 1 0 0 0 0 0 0 0 0 0 0 0 0 0 0
7 7 5 3 2 3 3 3 1 0 1 3 3 3 3 3 2 1 0 0 0 0 0 0 1 2 3 2 1 0 0 0 0 0 0 0 0 0 0 0 0 0 0
9 8 6 4 5 6 5 4 3 3 3 3 3 3 3 3 1 0 0 0 0 0 0 0 0 1 1 2 1 0 0 0 0 0 1 1 1 0 0 0 0 0 0
9 9 7 7 9 10 9 7 7 6 5 4 4 3 3 2 1 0 0 0 0 0 0 0 0 0 1 2 1 0 0 1 1 0 1 1 2 2 1 1 0 0 0
8 8 8 9 11 12 12 10 9 7 5 5 4 3 1 1 0 0 0 0 0 0 0 0 0 0 1 1 1 0 0 1 1 0 0 1 2 2 2 1 0 0 0
6 7 9 11 12 13 13 12 9 6 4 4 4 3 1 0 0 0 0 0 0 0 0 0 0 0 1 2 2 1 0 1 1 0 0 0 1 1 1 1 0 0 1
6 6 8 10 11 12 13 12 10 6 4 4 3 3 1 0 0 0 0 0 0 0 0 0 0 1 2 2 2 1 0 0 0 0 0 0 0 1 0 0 0 0 1
7 6 6 8 10 11 12 13 13 10 7 5 4 3 2 1 0 0 0 0 0 0 0 1 1 2 3 3 2 1 1 1 0 0 0 0 0 0 0 0 0 0 1
8 6 6 7 9 10 12 14 15 13 9 6 4 4 3 2 1 0 0 0 0 0 1 2 3 4 5 5 4 3 3 1 1 1 1 0 0 0 0 0 0 0 0
7 7 6 7 8 9 10 12 12 11 8 6 6 6 5 4 3 3 2 2 1 1 2 4 5 6 6 6 6 5 4 2 1 2 2 0 0 0 0 0 0 0 0
6 7 7 8 8 9 10 9 8 8 6 6 7 8 6 6 6 6 6 5 4 3 3 5 6 7 6 6 6 6 5 2 2 2 2 1 1 1 0 0 0 0 0
5 6 8 9 10 10 10 9 8 7 6 6 8 8 7 7 7 7 8 8 6 4 3 5 7 7 7 7 6 6 6 4 4 4 4 3 3 2 0 0 0 0 0
6 6 8 10 10 9 9 9 9 8 6 7 8 8 7 7 6 7 7 8 8 5 4 5 7 8 8 7 6 6 6 6 6 6 6 6 5 3 1 0 0 0 0
8 8 10 11 10 9 8 9 9 7 7 9 10 10 9 8 6 6 6 8 9 8 5 5 7 9 9 7 6 6 7 8 8 7 6 6 6 5 4 2 0 0 0
10 11 12 11 10 8 7 6 6 5 6 9 10 10 10 8 7 7 7 8 9 9 8 7 7 8 7 6 5 5 6 7 7 7 6 6 6 6 6 4 2 1 0
10 10 10 9 8 6 4 3 3 3 4 6 8 8 8 8 8 8 8 9 9 10 9 9 8 8 6 5 3 3 6 8 8 7 6 6 6 5 5 4 3 2 1
7 7 7 6 5 5 4 4 3 2 1 2 4 6 6 7 8 8 9 9 10 10 10 10 10 9 8 6 3 3 7 9 9 8 7 6 6 4 3 3 4 4 4
4 4 4 4 5 6 6 6 5 2 0 0 2 4 5 6 6 7 8 9 10 10 10 11 11 11 10 8 4 3 6 9 10 9 8 7 6 3 1 1 3 4 4
2 2 2 3 5 6 6 6 5 2 0 0 1 2 4 4 4 5 6 7 9 10 11 12 12 11 10 9 5 2 3 6 9 11 10 7 5 2 1 0 1 2 2
1 1 1 2 4 4 4 4 4 2 0 0 1 2 3 3 3 3 4 5 7 9 11 12 11 10 10 11 9 5 2 3 6 9 8 4 2 1 0 0 0 0 0
1 1 1 2 3 3 3 3 2 1 1 1 2 3 3 3 3 4 4 5 6 8 9 10 10 9 11 12 12 10 7 5 5 5 4 2 1 0 0 0 0 0 0
2 2 2 2 3 2 2 2 1 1 2 2 2 2 2 2 3 4 5 5 6 6 7 8 9 9 10 11 11 10 8 7 6 6 5 5 4 3 1 0 0 0 0
3 3 3 2 2 1 1 1 0 1 2 2 1 1 1 1 2 4 4 4 4 5 6 7 8 9 8 8 7 5 5 5 6 7 8 8 7 6 4 1 0 0 0

GEFSMW_con_probscp_342.txt.gz
Probability
6 8 10 9 8 7 6 5 6 8 10 9 7 7 8 8 7 6 4 3 2 1 0 2 4 4 3 1 1 1 0 0 0 1 1 0 1 2 3 3 3 2 1
9 10 11 10 8 6 5 5 6 8 8 8 7 7 8 7 5 4 4 3 2 1 1 2 3 3 3 2 2 2 1 0 1 2 3 2 1 1 2 3 3 2 3
11 11 12 11 8 7 6 6 8 8 6 6 7 8 7 7 5 4 4 4 2 1 2 3 4 4 4 4 3 3 1 0 1 3 5 4 3 2 1 1 2 3 4
11 10 11 11 9 9 9 9 9 8 6 6 7 7 6 6 6 5 5 4 2 0 1 3 4 5 6 5 4 3 1 0 0 2 4 5 5 4 2 1 1 3 5
11 10 11 10 10 10 11 11 11 10 9 8 8 8 6 6 6 5 4 3 1 0 0 1 3 5 6 5 4 3 2 1 1 2 3 3 5 6 5 2 2 3 4
11 11 10 10 10 12 12 13 15 15 13 11 10 9 7 5 4 4 3 3 2 1 0 0 1 3 5 6 5 5 4 2 2 3 4 4 5 6 6 4 3 3 2
11 12 12 12 13 14 14 16 19 19 17 13 10 9 7 4 3 3 4 4 3 2 2 1 1 3 6 7 7 6 5 4 4 5 5 6 7 8 6 5 3 2 2
12 14 15 15 15 17 18 20 22 22 19 15 12 10 8 5 3 4 5 6 5 3 3 3 3 5 8 9 8 7 6 5 5 5 5 6 8 8 7 6 4 3 3
12 14 16 16 16 18 22 23 24 23 19 16 14 12 10 8 6 6 7 8 7 5 4 3 3 5 9 11 10 8 7 6 6 5 4 5 6 7 8 8 7 6 5
9 11 14 15 15 17 20 23 23 21 18 15 14 12 12 11 9 8 8 10 10 8 6 5 4 5 8 12 12 10 8 8 7 6 5 5 5 6 8 10 10 9 9
8 10 13 15 16 16 17 19 21 19 16 14 13 13 13 13 11 9 8 9 9 9 9 8 8 7 9 13 15 13 11 10 9 8 7 6 6 7 9 11 12 11 11
9 9 12 15 16 14 13 16 18 17 16 14 14 15 16 14 11 9 8 7 7 8 9 9 10 10 12 16 17 16 14 12 11 9 9 8 8 10 11 11 11 10 10
9 8 10 14 15 12 12 14 16 16 16 17 18 19 18 15 12 10 8 7 7 7 7 8 10 10 11 14 17 17 16 15 13 11 10 10 11 12 13 12 11 10 9
10 9 11 13 12 12 13 15 18 19 20 21 22 23 21 18 15 12 10 9 9 7 6 8 10 10 9 11 14 16 16 16 15 13 11 10 11 12 13 13 12 11 11
11 11 12 13 12 13 15 18 22 24 25 25 25 24 22 20 18 16 13 12 10 8 7 9 11 11 9 9 11 14 16 17 17 15 13 12 11 12 12 11 11 12 12
12 13 15 15 15 15 17 20 24 26 26 25 23 22 21 19 18 17 15 14 12 11 10 9 10 10 8 6 8 12 16 18 18 17 16 14 12 11 10 9 7 7 9
13 15 18 18 18 17 17 19 21 22 21 20 18 17 17 16 16 15 14 15 16 15 13 11 10 9 6 5 5 8 13 16 18 18 18 16 13 11 10 8 6 5 6
14 16 17 17 18 18 16 16 17 17 15 14 12 12 13 14 14 14 14 16 17 15 12 11 10 8 6 5 4 4 9 14 16 17 18 17 14 11 9 9 9 10 10
15 15 15 16 17 17 14 12 12 12 10 9 10 11 12 12 12 13 14 15 15 13 11 11 10 9 9 7 4 4 9 13 14 14 15 15 14 10 9 10 13 15 16
15 15 16 17 16 14 11 9 9 8 8 9 10 10 10 10 10 12 13 13 14 13 13 14 13 12 13 10 5 5 10 13 13 13 13 12 11 9 8 11 13 14 15
14 16 18 17 14 12 9 7 6 6 8 9 9 8 7 8 9 11 12 13 14 16 16 16 16 16 16 14 9 6 9 12 14 14 13 12 9 6 6 7 9 10 9
14 15 16 15 12 11 9 8 7 7 7 8 7 6 5 6 7 9 10 12 14 15 15 15 15 15 16 15 10 6 6 10 13 15 14 12 7 4 3 3 4 5 5
14 13 11 10 10 9 9 9 9 8 7 8 8 6 6 6 6 8 10 11 12 12 11 11 11 11 11 11 8 5 5 6 10 12 12 9 4 2 3 3 2 3 4
12 11 10 9 9 9 8 9 9 9 9 10 10 9 8 8 8 9 11 12 11 9 7 8 8 9 9 8 7 6 5 5 6 9 11 9 6 4 5 5 5 6 8
11 12 12 11 10 9 9 8 9 9 10 11 11 10 9 9 9 10 11 10 9 6 5 6 7 9 9 7 6 6 6 6 6 9 11 12 11 10 10 10 10 11 11
11 13 14 13 11 10 9 8 8 8 9 11 11 10 9 9 9 9 9 8 6 4 4 5 7 8 7 6 5 5 6 6 7 8 11 14 15 14 13 13 13 13 13

GEFSMW_con_probscp_348.txt.gz
Probability
17 19 21 20 20 22 26 28 28 24 19 16 14 12 10 11 11 9 8 9 9 6 5 5 6 6 4 2 2 1 1 2 2 2 3 5 8 10 9 6 3 3 4
19 19 19 20 20 23 27 31 30 27 21 20 19 17 15 13 12 10 10 11 11 8 5 5 6 6 5 5 5 4 3 2 2 3 2 3 6 8 7 6 5 5 6
20 19 18 19 20 24 28 32 33 31 27 25 23 21 19 16 13 12 14 15 14 11 7 5 6 6 6 7 7 7 6 5 3 3 3 3 4 5 4 4 5 6 8
22 20 20 20 21 24 28 32 36 36 32 28 24 22 20 17 15 16 17 17 16 14 10 7 7 7 7 7 6 6 6 5 4 3 3 4 4 4 4 4 4 6 7
23 23 22 23 23 23 27 34 40 41 37 32 27 23 21 18 17 18 18 18 18 17 14 12 12 12 10 8 5 5 5 5 4 4 4 4 4 5 4 4 3 4 5
22 23 24 24 25 26 28 35 41 42 38 35 30 26 23 22 21 20 18 17 18 17 15 15 17 18 16 12 9 7 7 6 6 6 5 4 4 4 4 3 3 3 4
20 21 22 23 26 29 31 35 41 41 38 36 32 29 27 26 26 23 19 17 17 17 16 19 22 23 21 18 14 11 9 7 8 8 7 6 5 5 5 4 3 3 3
19 20 20 20 25 29 31 34 38 39 37 36 34 32 31 29 27 24 20 18 17 18 20 24 25 24 22 21 18 14 11 9 9 8 7 7 7 7 7 5 4 3 3
17 18 19 19 23 28 30 32 36 38 37 35 35 35 35 32 29 25 23 21 20 19 21 24 24 22 21 21 19 16 14 13 12 10 8 7 7 8 8 6 5 4 4
14 16 18 19 22 25 29 31 35 37 36 35 34 36 37 35 32 29 26 24 20 19 19 20 20 20 21 20 19 18 17 16 15 13 10 8 7 7 6 6 6 6 5
14 17 19 18 20 23 27 30 32 34 35 35 35 37 38 35 32 30 28 25 21 19 19 19 19 19 19 19 18 18 17 16 16 15 14 11 8 7 6 7 7 8 8
16 19 22 22 22 24 27 28 28 30 33 35 37 39 39 36 31 29 28 25 22 21 20 19 17 16 16 17 17 16 15 16 16 16 16 15 12 10 9 10 10 10 10
16 18 23 26 25 27 29 30 28 28 30 35 38 40 40 37 33 30 29 27 24 22 20 18 15 13 14 15 15 15 15 16 16 16 18 18 16 14 13 12 12 11 10
18 18 22 25 26 28 32 32 30 29 31 34 38 40 40 37 33 31 30 28 25 23 21 18 15 13 13 14 15 15 15 16 17 17 18 17 17 16 13 12 11 10 10
22 22 23 25 27 30 33 32 29 30 31 33 35 37 38 35 31 29 29 27 23 22 21 19 16 13 10 10 12 13 13 15 16 17 16 16 16 14 11 10 9 10 10
25 25 26 28 30 33 33 30 26 26 28 29 31 33 35 32 28 26 25 24 22 21 21 19 16 13 9 7 6 8 9 12 15 16 16 15 14 13 11 8 7 8 8
25 26 28 29 29 29 28 25 22 22 24 25 26 27 28 28 26 25 24 23 22 22 23 22 19 15 10 6 4 4 6 10 14 15 15 14 12 12 12 10 7 7 7
25 26 27 26 24 21 20 21 20 19 19 19 18 18 20 22 24 25 25 24 22 21 23 24 22 18 13 8 4 4 6 9 13 14 13 12 11 11 13 13 11 9 9
25 26 25 22 18 16 16 19 19 18 15 12 12 14 15 17 21 22 22 22 22 21 20 20 21 18 14 10 7 7 9 12 13 14 13 11 10 10 11 13 15 14 13
26 26 24 20 17 16 18 19 18 16 14 11 11 14 17 18 20 20 19 19 20 20 17 17 17 16 13 12 10 10 13 15 15 15 15 12 9 8 8 11 14 15 14
28 27 25 23 20 18 20 21 19 18 18 16 14 16 17 17 18 20 20 19 18 18 18 17 16 13 11 12 12 11 12 15 16 16 15 13 9 6 5 7 10 11 11
28 28 29 29 25 21 21 23 24 24 23 21 19 18 17 16 18 22 24 20 17 17 18 18 16 12 10 12 12 8 7 10 12 13 13 11 7 4 3 4 5 6 6
27 28 29 29 26 22 21 24 27 28 25 23 21 20 20 19 22 25 24 19 16 15 16 15 14 12 11 12 10 7 5 6 8 9 9 8 5 3 3 4 4 5 6
27 27 26 26 25 23 23 25 29 29 26 22 20 20 20 20 23 24 20 15 13 13 12 12 12 12 13 11 9 7 6 5 5 6 7 7 5 5 5 6 6 7 9
26 25 23 22 23 24 25 27 28 28 25 21 18 16 15 15 18 17 14 10 10 10 9 9 10 10 10 7 6 6 6 5 5 5 7 7 7 7 8 9 10 11 12
24 22 20 21 22 24 26 27 28 27 24 20 17 14 11 12 14 12 9 7 6 6 6 7 8 8 6 3 2 4 5 5 4 5 6 7 8 8 9 10 11 12 13